Tracking 19792 objects as of 15-Jul-2019
HD Live streaming from Space Station
objects crossing your sky now

FENGYUN 1C DEB

Track FENGYUN 1C DEB now!
10-day predictions


NORAD ID: 31097
Int'l Code: 1999-025BGT
Perigee: 821.6 km
Apogee: 848.9 km
Inclination: 98.9 °
Period: 101.5 minutes
Semi major axis: 7206 km
RCS: 0.0109 m2 (small)
Launch date: May 10, 1999
Source: People's Republic of China (PRC)
Launch site: Taiyaun Space Center, China (TSC)

Note: This is SATELLITE DEBRIS
aabbcc
Your satellite tracking list
Your tracking list is empty




NASA's NSSDC Master Catalog

Two Line Element Set (TLE):
1 31097U 99025BGT 19195.13405222 +.00000554 +00000-0 +28553-3 0  9999
2 31097 098.9170 255.0627 0018979 230.5507 159.9541 14.19184103636303
Source of the keplerian elements: AFSPC